Location: Boca de Tacagua
(10.5333°N, 66.9833°W)
Time: 14:06:28
(UTC+00:00)

BREEZE-M DEB (TANK) - Pass Details

Date: 08 December 2021
Orbit: 298 x 13910 km, 49.6° (Epoch: 18 January)

Event Time Altitude Azimuth Distance (km) Brightness Sun altitude
Rises 22:50:36 0° 221° (SW) 2,017 6.9 -11.0°
Reaches altitude 10° 22:52:15 10° 223° (SW) 1,154 5.6 -11.4°
Maximum altitude 22:54:19 77° 309° (NW) 355 1.9 -11.9°
Enters shadow 22:56:46 15° 36° (NE) 1,375 4.4 -12.4°
